Time,TemperatureF,DewpointF,PressureIn,WindDirection,WindDirectionDegrees,WindSpeedMPH,WindSpeedGustMPH,Humidity,HourlyPrecipIn,Conditions,Clouds,dailyrainin,SoftwareType,DateUTC
2013-04-19 00:10:00,45.5,35.0,30.14,NNE,19,4.0,8.0,67,0.00,,,1.41,weatherlink.com 1.10,2013-04-19 05:10:00,
2013-04-19 00:25:00,45.1,35.0,30.14,North,11,3.0,8.0,67,0.00,,,1.41,weatherlink.com 1.10,2013-04-19 05:25:00,
2013-04-19 00:40:00,44.4,35.0,30.14,NNE,18,5.0,7.0,69,0.00,,,0.00,weatherlink.com 1.10,2013-04-19 05:40:00,
2013-04-19 00:56:00,44.7,34.0,30.14,NE,46,2.0,11.0,66,0.00,,,0.00,weatherlink.com 1.10,2013-04-19 05:56:00,
2013-04-19 01:11:00,44.5,33.0,30.14,North,349,4.0,11.0,65,0.00,,,0.00,weatherlink.com 1.10,2013-04-19 06:11:00,
2013-04-19 01:25:00,44.1,33.0,30.14,North,4,8.0,13.0,65,0.00,,,0.00,weatherlink.com 1.10,2013-04-19 06:25:00,
2013-04-19 01:40:00,43.7,32.0,30.14,North,356,4.0,14.0,64,0.00,,,0.00,weatherlink.com 1.10,2013-04-19 06:40:00,
2013-04-19 01:55:00,43.4,32.0,30.14,NE,39,3.0,14.0,64,0.00,,,0.00,weatherlink.com 1.10,2013-04-19 06:55:00,
2013-04-19 02:10:00,43.2,32.0,30.14,NNW,340,8.0,14.0,64,0.00,,,0.00,weatherlink.com 1.10,2013-04-19 07:10:00,
2013-04-19 02:25:00,43.0,31.0,30.13,NE,56,2.0,11.0,64,0.00,,,0.00,weatherlink.com 1.10,2013-04-19 07:25:00,
2013-04-19 02:40:00,42.6,31.0,30.13,North,356,6.0,13.0,65,0.00,,,0.00,weatherlink.com 1.10,2013-04-19 07:40:00,
2013-04-19 02:55:00,42.2,31.0,30.13,NNE,25,4.0,8.0,66,0.00,,,0.00,weatherlink.com 1.10,2013-04-19 07:55:00,
2013-04-19 03:10:00,41.7,31.0,30.13,NNE,28,3.0,6.0,67,0.00,,,0.00,weatherlink.com 1.10,2013-04-19 08:10:00,
2013-04-19 03:25:00,41.6,31.0,30.14,NNE,27,2.0,8.0,67,0.00,,,0.00,weatherlink.com 1.10,2013-04-19 08:25:00,
2013-04-19 03:40:00,41.6,31.0,30.15,North,8,3.0,5.0,67,0.00,,,0.00,weatherlink.com 1.10,2013-04-19 08:40:00,
2013-04-19 03:55:00,41.4,32.0,30.16,NNE,15,0.0,6.0,69,0.00,,,0.00,weatherlink.com 1.10,2013-04-19 08:55:00,
2013-04-19 04:10:00,41.0,32.0,30.17,North,359,1.0,4.0,69,0.00,,,0.00,weatherlink.com 1.10,2013-04-19 09:10:00,
2013-04-19 04:25:00,40.2,32.0,30.18,NNW,335,0.0,1.0,73,0.00,,,0.00,weatherlink.com 1.10,2013-04-19 09:25:00,
2013-04-19 04:40:00,38.8,33.0,30.18,West,264,0.0,1.0,79,0.00,,,0.00,weatherlink.com 1.10,2013-04-19 09:40:00,
2013-04-19 04:55:00,37.7,33.0,30.19,West,264,0.0,1.0,82,0.00,,,0.00,weatherlink.com 1.10,2013-04-19 09:55:00,
2013-04-19 05:10:00,36.7,33.0,30.20,West,264,0.0,0.0,86,0.00,,,0.00,weatherlink.com 1.10,2013-04-19 10:10:00,
2013-04-19 05:25:00,36.1,33.0,30.20,West,264,0.0,1.0,87,0.00,,,0.00,weatherlink.com 1.10,2013-04-19 10:25:00,
2013-04-19 05:40:00,35.7,33.0,30.21,West,264,0.0,1.0,88,0.00,,,0.00,weatherlink.com 1.10,2013-04-19 10:40:00,
2013-04-19 05:56:00,35.2,33.0,30.21,West,264,0.0,0.0,90,0.00,,,0.00,weatherlink.com 1.10,2013-04-19 10:56:00,
2013-04-19 06:11:00,35.3,33.0,30.22,West,264,0.0,0.0,90,0.00,,,0.00,weatherlink.com 1.10,2013-04-19 11:11:00,
2013-04-19 06:26:00,35.5,33.0,30.21,WNW,287,0.0,2.0,91,0.00,,,0.00,weatherlink.com 1.10,2013-04-19 11:26:00,
2013-04-19 06:41:00,35.8,33.0,30.22,NNW,346,0.0,1.0,89,0.00,,,0.00,weatherlink.com 1.10,2013-04-19 11:41:00,
2013-04-19 06:56:00,36.1,33.0,30.23,NW,314,1.0,1.0,89,0.00,,,0.00,weatherlink.com 1.10,2013-04-19 11:56:00,
2013-04-19 07:11:00,36.5,33.0,30.23,NW,319,1.0,3.0,88,0.00,,,0.00,weatherlink.com 1.10,2013-04-19 12:11:00,
2013-04-19 07:26:00,37.3,34.0,30.24,NNW,335,2.0,5.0,87,0.00,,,0.00,weatherlink.com 1.10,2013-04-19 12:26:00,
2013-04-19 07:41:00,38.4,34.0,30.24,NNE,13,2.0,7.0,83,0.00,,,0.00,weatherlink.com 1.10,2013-04-19 12:41:00,
2013-04-19 08:11:00,41.0,34.0,30.24,NNW,339,5.0,8.0,76,0.00,,,0.00,weatherlink.com 1.10,2013-04-19 13:11:00,
2013-04-19 08:26:00,42.6,35.0,30.25,NW,319,0.0,7.0,73,0.00,,,0.00,weatherlink.com 1.10,2013-04-19 13:26:00,
2013-04-19 08:41:00,44.2,35.0,30.25,NW,321,2.0,10.0,70,0.00,,,0.00,weatherlink.com 1.10,2013-04-19 13:41:00,
2013-04-19 08:56:00,45.2,32.0,30.25,North,8,9.0,16.0,61,0.00,,,0.00,weatherlink.com 1.10,2013-04-19 13:56:00,
2013-04-19 09:11:00,46.0,33.0,30.25,NE,36,7.0,12.0,61,0.00,,,0.00,weatherlink.com 1.10,2013-04-19 14:11:00,
2013-04-19 09:26:00,46.6,32.0,30.25,NNE,22,8.0,14.0,57,0.00,,,0.00,weatherlink.com 1.10,2013-04-19 14:26:00,
2013-04-19 09:41:00,47.1,31.0,30.26,NNE,17,10.0,18.0,55,0.00,,,0.00,weatherlink.com 1.10,2013-04-19 14:41:00,
2013-04-19 09:56:00,47.7,32.0,30.26,NNE,16,6.0,16.0,55,0.00,,,0.00,weatherlink.com 1.10,2013-04-19 14:56:00,
2013-04-19 10:11:00,48.0,31.0,30.26,North,351,10.0,15.0,52,0.00,,,0.00,weatherlink.com 1.10,2013-04-19 15:11:00,
2013-04-19 10:26:00,48.3,31.0,30.26,North,351,6.0,22.0,52,0.00,,,0.00,weatherlink.com 1.10,2013-04-19 15:26:00,
2013-04-19 10:41:00,48.6,30.0,30.27,NNE,15,10.0,20.0,49,0.00,,,0.00,weatherlink.com 1.10,2013-04-19 15:41:00,
2013-04-19 10:56:00,49.3,30.0,30.27,NNW,340,7.0,17.0,48,0.00,,,0.00,weatherlink.com 1.10,2013-04-19 15:56:00,
2013-04-19 11:11:00,49.8,32.0,30.27,NNE,16,11.0,16.0,51,0.00,,,0.00,weatherlink.com 1.10,2013-04-19 16:11:00,
2013-04-19 11:26:00,50.8,31.0,30.28,North,11,7.0,13.0,47,0.00,,,0.00,weatherlink.com 1.10,2013-04-19 16:26:00,
2013-04-19 11:41:00,50.5,31.0,30.28,NNW,335,6.0,15.0,47,0.00,,,0.00,weatherlink.com 1.10,2013-04-19 16:41:00,
2013-04-19 11:56:00,50.6,31.0,30.27,NNE,16,9.0,19.0,47,0.00,,,0.00,weatherlink.com 1.10,2013-04-19 16:56:00,
2013-04-19 12:11:00,51.1,31.0,30.27,North,5,13.0,14.0,46,0.00,,,0.00,weatherlink.com 1.10,2013-04-19 17:11:00,
2013-04-19 12:26:00,51.9,30.0,30.27,North,1,6.0,17.0,44,0.00,,,0.00,weatherlink.com 1.10,2013-04-19 17:26:00,
2013-04-19 12:42:00,52.9,32.0,30.27,NNW,340,8.0,15.0,46,0.00,,,0.00,weatherlink.com 1.10,2013-04-19 17:42:00,
2013-04-19 12:57:00,53.5,32.0,30.26,NNE,32,8.0,14.0,45,0.00,,,0.00,weatherlink.com 1.10,2013-04-19 17:57:00,
2013-04-19 13:12:00,53.7,33.0,30.26,North,354,4.0,15.0,46,0.00,,,0.00,weatherlink.com 1.10,2013-04-19 18:12:00,
2013-04-19 13:27:00,54.3,33.0,30.25,North,9,12.0,17.0,44,0.00,,,0.00,weatherlink.com 1.10,2013-04-19 18:27:00,
2013-04-19 13:42:00,54.6,31.0,30.25,NNE,16,8.0,18.0,41,0.00,,,0.00,weatherlink.com 1.10,2013-04-19 18:42:00,
2013-04-19 13:57:00,54.8,31.0,30.24,NE,43,11.0,17.0,40,0.00,,,0.00,weatherlink.com 1.10,2013-04-19 18:57:00,
2013-04-19 14:12:00,55.4,33.0,30.24,North,349,6.0,14.0,43,0.00,,,0.00,weatherlink.com 1.10,2013-04-19 19:12:00,
2013-04-19 14:27:00,56.6,33.0,30.24,NNE,30,10.0,11.0,41,0.00,,,0.00,weatherlink.com 1.10,2013-04-19 19:27:00,
2013-04-19 14:42:00,56.0,33.0,30.23,NW,326,6.0,18.0,42,0.00,,,0.00,weatherlink.com 1.10,2013-04-19 19:42:00,
2013-04-19 14:57:00,56.9,31.0,30.22,North,350,6.0,12.0,38,0.00,,,0.00,weatherlink.com 1.10,2013-04-19 19:57:00,
2013-04-19 15:12:00,57.6,34.0,30.22,NNW,345,6.0,13.0,41,0.00,,,0.00,weatherlink.com 1.10,2013-04-19 20:12:00,
2013-04-19 15:27:00,57.7,34.0,30.21,North,5,4.0,12.0,41,0.00,,,0.00,weatherlink.com 1.10,2013-04-19 20:27:00,
2013-04-19 15:42:00,58.3,32.0,30.21,NNE,26,10.0,13.0,37,0.00,,,0.00,weatherlink.com 1.10,2013-04-19 20:42:00,
2013-04-19 15:57:00,58.2,32.0,30.20,NE,38,4.0,13.0,37,0.00,,,0.00,weatherlink.com 1.10,2013-04-19 20:57:00,
2013-04-19 16:12:00,59.1,31.0,30.19,NW,314,3.0,14.0,35,0.00,,,0.00,weatherlink.com 1.10,2013-04-19 21:12:00,
2013-04-19 16:27:00,59.2,32.0,30.18,North,351,7.0,12.0,36,0.00,,,0.00,weatherlink.com 1.10,2013-04-19 21:27:00,
2013-04-19 16:42:00,59.2,34.0,30.18,North,356,6.0,9.0,39,0.00,,,0.00,weatherlink.com 1.10,2013-04-19 21:42:00,
2013-04-19 16:57:00,59.3,31.0,30.18,North,354,4.0,12.0,35,0.00,,,0.00,weatherlink.com 1.10,2013-04-19 21:57:00,
2013-04-19 17:12:00,59.5,32.0,30.18,NNE,26,9.0,10.0,35,0.00,,,0.00,weatherlink.com 1.10,2013-04-19 22:12:00,
2013-04-19 17:27:00,60.0,33.0,30.18,North,11,7.0,12.0,36,0.00,,,0.00,weatherlink.com 1.10,2013-04-19 22:27:00,
2013-04-19 17:42:00,60.1,34.0,30.17,NNE,26,7.0,10.0,37,0.00,,,0.00,weatherlink.com 1.10,2013-04-19 22:42:00,
2013-04-19 17:57:00,59.7,30.0,30.17,North,1,6.0,11.0,33,0.00,,,0.00,weatherlink.com 1.10,2013-04-19 22:57:00,
2013-04-19 18:12:00,60.1,31.0,30.17,North,358,4.0,8.0,34,0.00,,,0.00,weatherlink.com 1.10,2013-04-19 23:12:00,
2013-04-19 18:27:00,59.7,32.0,30.17,North,6,3.0,10.0,35,0.00,,,0.00,weatherlink.com 1.10,2013-04-19 23:27:00,
2013-04-19 18:42:00,59.6,33.0,30.17,North,354,4.0,9.0,37,0.00,,,0.00,weatherlink.com 1.10,2013-04-19 23:42:00,
2013-04-19 18:57:00,59.5,33.0,30.17,NNW,346,2.0,6.0,37,0.00,,,0.00,weatherlink.com 1.10,2013-04-19 23:57:00,
2013-04-19 19:12:00,58.8,33.0,30.17,WNW,290,1.0,6.0,38,0.00,,,0.00,weatherlink.com 1.10,2013-04-20 00:12:00,
2013-04-19 19:27:00,57.6,34.0,30.17,North,6,0.0,1.0,41,0.00,,,0.00,weatherlink.com 1.10,2013-04-20 00:27:00,
2013-04-19 19:42:00,56.4,36.0,30.17,North,358,0.0,0.0,46,0.00,,,0.00,weatherlink.com 1.10,2013-04-20 00:42:00,
2013-04-19 19:57:00,54.3,36.0,30.17,North,358,0.0,0.0,51,0.00,,,0.00,weatherlink.com 1.10,2013-04-20 00:57:00,
2013-04-19 20:12:00,51.9,42.0,30.18,North,359,0.0,1.0,68,0.00,,,0.00,weatherlink.com 1.10,2013-04-20 01:12:00,
2013-04-19 20:27:00,50.1,42.0,30.18,North,359,0.0,0.0,74,0.00,,,0.00,weatherlink.com 1.10,2013-04-20 01:27:00,
2013-04-19 20:42:00,48.0,40.0,30.19,North,359,0.0,0.0,75,0.00,,,0.00,weatherlink.com 1.10,2013-04-20 01:42:00,
2013-04-19 20:57:00,46.8,41.0,30.19,North,358,0.0,0.0,79,0.00,,,0.00,weatherlink.com 1.10,2013-04-20 01:57:00,
2013-04-19 21:12:00,45.9,40.0,30.20,North,359,0.0,0.0,81,0.00,,,0.00,weatherlink.com 1.10,2013-04-20 02:12:00,
2013-04-19 21:27:00,44.8,41.0,30.20,North,359,0.0,0.0,86,0.00,,,0.00,weatherlink.com 1.10,2013-04-20 02:27:00,
2013-04-19 21:42:00,44.4,41.0,30.20,West,269,0.0,1.0,87,0.00,,,0.00,weatherlink.com 1.10,2013-04-20 02:42:00,
2013-04-19 21:57:00,44.0,40.0,30.21,WSW,238,0.0,1.0,87,0.00,,,0.00,weatherlink.com 1.10,2013-04-20 02:57:00,
2013-04-19 22:12:00,43.2,40.0,30.21,SSW,205,0.0,0.0,88,0.00,,,0.00,weatherlink.com 1.10,2013-04-20 03:12:00,
2013-04-19 22:28:00,42.6,40.0,30.21,SSW,208,0.0,1.0,89,0.00,,,0.00,weatherlink.com 1.10,2013-04-20 03:28:00,
2013-04-19 22:42:00,42.1,39.0,30.21,SSW,198,0.0,0.0,90,0.00,,,0.00,weatherlink.com 1.10,2013-04-20 03:42:00,
2013-04-19 22:57:00,41.8,39.0,30.21,SSW,203,0.0,1.0,91,0.00,,,0.00,weatherlink.com 1.10,2013-04-20 03:57:00,